735  
ASUS44 KLIX 160505  
RWRLIX  
NEW ORLEANS REGIONAL WEATHER ROUNDUP  
NATIONAL WEATHER SERVICE NEW ORLEANS LA  
1200 AM CDT TUE OCT 16 2018  
 
NOTE: "FAIR" INDICATES FEW OR NO CLOUDS BELOW 12,000 FEET WITH NO  
SIGNIFICANT WEATHER AND/OR S TO VISIBILITY
.  
SKY/WX - SKY CONDITION AND SIGNIFICANT WEATHER.  
TMP - AIR TEMPERATURE. DP - DEWPOINT TEMPERATURE.  
RH - RELATIVE HUMIDITY. PRES - PRESSURE.  
HI - HEAT INDEX. WCI - WIND CHILL INDEX.  
 
* THESE STATIONS ARE NOT NWS OR FAA STATIONS AND ARE NOT UNDER  
NWS QUALITY CONTROL.  
 
LAZ038-040-048-061>063-065>067-069-160600-  
SOUTHEAST LOUISIANA  
 
CITY SKY/WX TMP DP RH WIND PRES REMARKS
 
N.O. INTL ARPT TSTM 76 75 97 NE12 30.04F  
N.O. LAKEFRONT RAIN 75 73 93 NE12 30.06F  
N.O. DOWNTOWN* RAIN 75 73 93 VRB7 30.06F  
RESERVE* TSTM 77 74 92 CALM 30.07R  
SLIDELL LGT RAIN 73 71 93 CALM 30.06F  
BATON ROUGE CLOUDY 74 73 97 NE5 30.06F  
BOOTHVILLE FAIR 82 76 81 E3 30.05F  
BELLE CHASSE NOT AVBL  
BOGALUSA* CLOUDY 74 70 89 CALM 30.08F  
GALLIANO* FAIR 75 70 83 CALM 30.04R  
NEW ROADS* CLOUDY 72 70 94 N3 30.07F  
GONZALES* CLOUDY 74 73 98 NE5 30.05F  
HAMMOND* LGT RAIN 72 72 100 N6 30.06F  
HOUMA* CLOUDY 75 74 97 N6 30.05S  
PORT FOURCHON* PTCLDY 79 77 94 CALM 30.03F  
 

 
 
MSZ070-080>082-160600-  
SOUTHERN MISSISSIPPI  
 
CITY SKY/WX TMP DP RH WIND PRES REMARKS
 
MCCOMB MOCLDY 75 68 78 N7 30.09F  
GULFPORT CLOUDY 79 74 84 NE3 30.06F  
BILOXI FAIR 78 76 95 E3 30.07S  
PASCAGOULA FAIR 76 73 91 E5 30.07S  
 

 
 
COASTAL OBSERVATIONS  
LAKE AND NEARSHORE STATIONS  
 
STATION/POSITION TIME SKY/WX TEMP WIND PRES WAVE
 
AIR SEA DIR/SP/G HT/PER  
(UTC) (F) (DEG/KT/KT) (MB) (FT/S)  
WAVELAND YACHT 0448 78 81 70/ 8/ 10 1018.0  
GRAND ISLE 0448 79 81 130/ 5/ 12 1017.0  
SOUTHWEST PASS 0448 140/ 11/ 14 N/A  
NEW CANAL 0448 75 80 50/ 13/ 15 1017.4  
SHELL BEACH 0448 77 81 10/ 10/ 12 1017.7  
 
OFFSHORE STATIONS  
 
STATION/POSITION TIME SKY/WX TEMP WIND PRES WAVE
 
AIR SEA DIR/SP/G HT/PER  
(UTC) (F) (DEG/KT/KT) (MB) (FT/S)  
64 S DAUPHIN ISL 0450 83 130/ 12/ 14 1018.2 2/ 5  
 

 
 
 
 
CLICK HERE TO GO TO PREVIOUS BULLETINS.

The Nexlab LA Page
The Nexlab MS Page Main Text Page